Location: Mapua
(41.2500°S, 173.1000°E)
Time: 19:59:57
(UTC+13:00)

Envisat - Visible Passes

Search period start: 20 March 2019 00:00
Search period end: 30 March 2019 00:00
Orbit: 764 x 766 km, 98.2° (Epoch: 19 March)

Date Brightness Start Highest point End Pass type
(mag) Time Alt. Az. Time Alt. Az. Time Alt. Az.
20 Mar 5.7 07:01:48 10° ENE 07:05:53 25° ESE 07:10:00 10° SSE visible
20 Mar 2.9 20:48:24 10° SSE 20:53:34 70° ENE 20:58:39 10° N visible
20 Mar 5.9 22:29:00 10° SSW 22:31:58 16° WSW 22:34:53 10° W visible
21 Mar 6.3 06:27:45 10° E 06:29:37 12° ESE 06:31:28 10° SE visible
21 Mar 3.7 20:12:06 10° SSE 20:16:40 31° E 20:21:10 10° NNE visible
21 Mar 4.8 21:51:06 10° S 21:55:37 32° WSW 22:00:06 10° NW visible
22 Mar 3.3 21:13:56 10° S 21:19:04 68° WSW 21:24:08 10° NNW visible
23 Mar 5.8 06:51:08 10° ENE 06:54:47 20° ESE 06:58:28 10° SSE visible
23 Mar 3.1 20:37:15 10° SSE 20:42:19 55° E 20:47:19 10° N visible
23 Mar 5.6 22:17:20 10° SSW 22:20:53 19° WSW 22:24:26 10° WNW visible
24 Mar 4.0 20:01:10 10° SE 20:05:22 25° E 20:09:32 10° NNE visible
24 Mar 4.4 21:39:42 10° S 21:44:29 39° WSW 21:49:13 10° NW visible
25 Mar 3.0 21:02:41 10° SSE 21:07:52 85° WSW 21:12:59 10° NNW visible
25 Mar 6.2 22:44:30 10° SW 22:46:03 11° WSW 22:47:37 10° WSW visible
26 Mar 5.9 06:40:38 10° E 06:43:42 16° ESE 06:46:48 10° SSE visible
26 Mar 3.3 20:26:09 10° SSE 20:31:03 43° E 20:35:55 10° N visible
26 Mar 5.3 22:05:46 10° SSW 22:09:47 24° WSW 22:13:48 10° WNW visible
27 Mar 4.2 19:50:20 10° SE 19:54:03 20° E 19:57:43 10° NE visible
27 Mar 3.9 21:28:22 10° S 21:33:20 49° WSW 21:38:14 10° NW visible
28 Mar 5.4 07:04:43 10° ENE 07:08:56 27° ESE 07:13:12 10° S visible
28 Mar 2.9 20:51:29 10° SSE 20:56:40 77° ENE 21:01:46 10° N visible
28 Mar 5.9 22:32:21 10° SSW 22:35:00 14° WSW 22:37:38 10° W visible
29 Mar 6.1 06:30:21 10° E 06:32:39 13° ESE 06:34:57 10° SSE visible
29 Mar 3.6 20:15:06 10° SSE 20:19:47 34° E 20:24:25 10° NNE visible
29 Mar 4.9 21:54:17 10° S 21:58:41 29° WSW 22:03:03 10° NW visible
